STARLINK-11290 [DTC]

Last updated on Fri Oct 04 2024 00:02:04 GMT+0000 (Coordinated Universal Time)

1 61000U 24158L 24277.43506686 .00002956 00000+0 22067-4 0 9999 2 61000 53.1578 336.1505 0001797 130.2746 229.8432 15.76720213 5625
UTC large
Height (km)
Speed (km/s)
/
Latitude / Longitude
Inclination (degrees)
Orbital Period (minutes)
Azimuth
Elevation
Range (km)
Doppler Factor

Next 0 passes for location: London (51.5072 / 0.1276)

Sorry there are no passes over London.